Kelso-Longview, WA
on Wednesday, January 9, 2013

Wednesday
Previous Day Next Day
Daily Summary
 ActualAverage (KSPB)Record (KSPB)
Temperature
Mean Temperature °F °F  
Max Temperature 51°F °F 52°F (2006)
Min Temperature 35°F °F 30°F (2003)
Degree Days
Heating Degree Days 22    
Month to date heating degree days  
Since 1 July heating degree days  
Cooling Degree Days 0    
Month to date cooling degree days  
Year to date cooling degree days  
Moisture
Dew Point 37°F   
Average Humidity 82    
Maximum Humidity 93    
Minimum Humidity 67    
Precipitation
Precipitation 0.52 in in 1.05 in (2006)
Month to date precipitation  
Year to date precipitation  
Wind
Wind Speed 8 mph   
Max Wind Speed 21 mph   
Max Gust Speed 33 mph   
Visibility 10 miles   
Events     

Key: T is trace of precipitation, MM is missing value
Source: NWS Daily Summary
Time(PST)TemperatureDew PointHumidity Pressure Visibility Wind DirectionWind SpeedGust SpeedPrecipitationEvents Conditions
12:15 AM 51.8°F 42.8°F 71% 29.86 in 10.0 miles SSE 10.4 mph 23.0 mph N/A   Mostly Cloudy
12:35 AM 51.8°F 42.8°F 71% 29.86 in 10.0 miles SSE 11.5 mph 17.3 mph N/A   Mostly Cloudy
12:55 AM 51.8°F 42.8°F 71% 29.86 in 10.0 miles SSE 13.8 mph 19.6 mph N/A   Mostly Cloudy
1:15 AM 51.8°F 42.8°F 71% 29.84 in 10.0 miles SE 11.5 mph 21.9 mph N/A   Scattered Clouds
1:35 AM 51.8°F 42.8°F 71% 29.83 in 10.0 miles SSE 13.8 mph 23.0 mph N/A   Mostly Cloudy
1:55 AM 51.8°F 42.8°F 71% 29.82 in 10.0 miles SSE 11.5 mph 18.4 mph N/A   Mostly Cloudy
2:15 AM 51.8°F 42.8°F 71% 29.81 in 10.0 miles SSE 15.0 mph 24.2 mph N/A   Mostly Cloudy
2:35 AM 51.8°F 42.8°F 71% 29.80 in 10.0 miles SSE 12.7 mph 20.7 mph N/A   Mostly Cloudy
2:55 AM 51.8°F 42.8°F 71% 29.79 in 10.0 miles South 12.7 mph 25.3 mph N/A   Overcast
3:15 AM 51.8°F 42.8°F 71% 29.79 in 10.0 miles SSE 16.1 mph 24.2 mph N/A   Mostly Cloudy
3:35 AM 51.8°F 42.8°F 71% 29.77 in 10.0 miles SSE 15.0 mph 24.2 mph N/A   Partly Cloudy
3:55 AM 51.8°F 42.8°F 71% 29.74 in 10.0 miles SSE 17.3 mph 26.5 mph N/A   Clear
4:15 AM 51.8°F 41.0°F 67% 29.73 in 10.0 miles SSE 15.0 mph 33.4 mph N/A   Mostly Cloudy
4:35 AM 51.8°F 41.0°F 67% 29.70 in 10.0 miles SSE 17.3 mph 29.9 mph N/A   Overcast
5:15 AM 51.8°F 41.0°F 67% 29.67 in 10.0 miles SSE 16.1 mph 20.7 mph N/A   Overcast
5:35 AM 51.8°F 41.0°F 67% 29.67 in 10.0 miles SSE 20.7 mph 28.8 mph N/A   Overcast
5:55 AM 46.4°F 39.2°F 76% 29.74 in 10.0 miles West 10.4 mph 18.4 mph 0.03 in   Overcast
6:15 AM 42.8°F 37.4°F 81% 29.76 in 5.0 miles West 10.4 mph - 0.14 in   Overcast
6:35 AM 41.0°F 37.4°F 87% 29.77 in 10.0 miles WNW 3.5 mph - 0.18 in   Overcast
7:15 AM 39.2°F 35.6°F 87% 29.78 in 8.0 miles NW 3.5 mph - 0.03 in   Overcast
7:35 AM 39.2°F 35.6°F 87% 29.79 in 10.0 miles Calm Calm - 0.04 in   Overcast
7:55 AM 39.2°F 35.6°F 87% 29.80 in 10.0 miles Calm Calm - 0.04 in   Overcast
8:15 AM 39.2°F 35.6°F 87% 29.81 in 10.0 miles Calm Calm - 0.01 in   Overcast
8:35 AM 39.2°F 35.6°F 87% 29.82 in 10.0 miles NW 3.5 mph - 0.01 in   Overcast
8:55 AM 39.2°F 35.6°F 87% 29.82 in 10.0 miles Calm Calm - 0.01 in   Overcast
9:15 AM 39.2°F 35.6°F 87% 29.83 in 10.0 miles Calm Calm - 0.01 in   Overcast
9:35 AM 39.2°F 35.6°F 87% 29.84 in 10.0 miles Calm Calm - 0.01 in   Overcast
9:55 AM 39.2°F 35.6°F 87% 29.85 in 10.0 miles Calm Calm - 0.01 in   Overcast
10:15 AM 39.2°F 35.6°F 87% 29.87 in 10.0 miles SE 3.5 mph - N/A   Overcast
10:35 AM 39.2°F 35.6°F 87% 29.88 in 10.0 miles SSE 3.5 mph - N/A   Overcast
10:55 AM 39.2°F 35.6°F 87% 29.88 in 9.0 miles SSE 4.6 mph - 0.02 in   Overcast
11:15 AM 39.2°F 35.6°F 87% 29.89 in 10.0 miles South 4.6 mph - 0.03 in   Overcast
11:35 AM 39.2°F 35.6°F 87% 29.89 in 10.0 miles SSW 3.5 mph - 0.03 in   Overcast
11:55 AM 39.2°F 35.6°F 87% 29.89 in 10.0 miles Calm Calm - 0.04 in   Overcast
12:15 PM 39.2°F 35.6°F 87% 29.88 in 8.0 miles Calm Calm - 0.02 in   Overcast
12:35 PM 39.2°F 35.6°F 87% 29.89 in 10.0 miles Calm Calm - 0.02 in   Overcast
12:55 PM 39.2°F 33.8°F 81% 29.90 in 10.0 miles Calm Calm - 0.05 in   Overcast
1:15 PM 39.2°F 33.8°F 81% 29.90 in 8.0 miles Calm Calm - 0.03 in   Overcast
1:35 PM 39.2°F 35.6°F 87% 29.90 in 10.0 miles Calm Calm - 0.04 in   Overcast
1:55 PM 39.2°F 35.6°F 87% 29.91 in 6.0 miles Calm Calm - 0.08 in   Overcast
2:15 PM 39.2°F 35.6°F 87% 29.91 in 8.0 miles Calm Calm - 0.02 in   Overcast
2:35 PM 39.2°F 35.6°F 87% 29.91 in 8.0 miles Calm Calm - 0.03 in   Overcast
2:55 PM 39.2°F 35.6°F 87% 29.92 in 10.0 miles ESE 4.6 mph - 0.03 in   Overcast
3:35 PM 39.2°F 35.6°F 87% 29.93 in 10.0 miles Calm Calm - 0.01 in   Mostly Cloudy
3:55 PM 39.2°F 35.6°F 87% 29.93 in 10.0 miles SE 3.5 mph - 0.01 in   Mostly Cloudy
4:15 PM 39.2°F 35.6°F 87% 29.93 in 10.0 miles SE 4.6 mph - N/A   Overcast
4:35 PM 39.2°F 35.6°F 87% 29.94 in 10.0 miles Calm Calm - N/A   Mostly Cloudy
4:55 PM 39.2°F 35.6°F 87% 29.94 in 10.0 miles SE 3.5 mph - N/A   Mostly Cloudy
7:35 PM 37.4°F 33.8°F 87% 29.97 in 10.0 miles SSE 4.6 mph - N/A   Overcast
8:15 PM 37.4°F 33.8°F 87% 29.97 in 10.0 miles SE 3.5 mph - N/A   Mostly Cloudy
8:35 PM 37.4°F 33.8°F 87% 29.97 in 10.0 miles SSE 3.5 mph - N/A   Scattered Clouds
8:55 PM 35.6°F 33.8°F 93% 29.98 in 10.0 miles SSE 3.5 mph - N/A   Mostly Cloudy
9:15 PM 35.6°F 33.8°F 93% 29.98 in 10.0 miles SE 4.6 mph - N/A   Overcast
9:35 PM 37.4°F 33.8°F 87% 29.98 in 9.0 miles South 3.5 mph - 0.01 in   Overcast
9:55 PM 37.4°F 33.8°F 87% 29.98 in 10.0 miles Calm Calm - 0.02 in   Overcast
10:35 PM 35.6°F 33.8°F 93% 29.99 in 8.0 miles Calm Calm - N/A   Overcast
11:15 PM 35.6°F 33.8°F 93% 29.99 in 10.0 miles Calm Calm - N/A   Overcast
Moon Phase
Jan. 09 Jan. 11 Jan. 18 Jan. 26 Feb. 03
Sunrise:07:52 AM (PST) Moon Rise:05:38 AM (PST)1/9
Sunset:04:45 PM (PST) Moon Set:02:52 PM (PST)1/9

Copyright © 2014 The Weather Underground, Inc.